This demonstration page uses our WeatherBlox Daily Observations layout. Learn more.

40.92945, -100.16068

Hourly Observations for October 16, 2019

Temp ( °F °C ) Dew Point ( °F °C ) Humidity (%) Winds ( mph kmh ) Pressure ( in mb ) Visibility ( mi km ) Precip ( " mm )
12:15 am 00:15 Clear 29 -1.5 26 -3.4 87 87 W 6 9 30.39 1029 10 16.0934 0 0
12:35 am 00:35 Clear 31 -0.7 27 -2.6 87 87 WNW 5 7 30.38 1029 10 16.0934 0 0
12:55 am 00:55 Clear 30 -1.1 27 -2.8 88 88 W 5 7 30.39 1029 10 16.0934 0 0
1:15 am 01:15 Clear 29 -1.5 27 -2.9 90 90 NW 6 9 30.38 1029 10 16.0934 0 0
1:35 am 01:35 Clear 29 -1.4 27 -2.9 90 90 NW 7 11 30.38 1029 10 16.0934 0 0
1:55 am 01:55 Clear 29 -1.5 27 -2.9 90 90 NW 7 11 30.38 1029 10 16.0934 0 0
2:15 am 02:15 Clear 29 -1.5 27 -3 90 90 NNW 7 11 30.38 1029 10 16.0934 0 0
2:35 am 02:35 Clear 29 -1.5 27 -3 90 90 NW 6 9 30.38 1029 10 16.0934 0 0
2:55 am 02:55 Clear 29 -1.8 27 -3 92 92 NNW 3 6 30.38 1029 10 16.0934 0 0
3:15 am 03:15 Clear 28 -2.4 26 -3.4 93 93 N 5 7 30.37 1029 10 16.0934 0 0
3:35 am 03:35 Clear 28 -2.4 26 -3.5 92 92 Calm 30.36 1028 10 16.0934 0 0
3:55 am 03:55 Clear 27 -2.7 26 -3.5 94 94 NNW 5 7 30.37 1028 10 16.0934 0 0
4:15 am 04:15 Clear 26 -3.3 24 -4.2 94 94 WSW 6 9 30.38 1029 10 16.0934 0 0
4:35 am 04:35 Clear 26 -3.1 25 -4.1 93 93 W 9 15 30.38 1029 10 16.0934 0 0
4:55 am 04:55 Clear 28 -2 26 -3.2 92 92 W 8 13 30.36 1028 10 16.0934 0 0
5:15 am 05:15 Clear 28 -2.1 26 -3.2 92 92 WNW 3 6 30.36 1028 10 16.0934 0 0
5:35 am 05:35 Clear 27 -2.6 26 -3.5 94 94 Calm 30.36 1028 10 16.0934 0 0
5:55 am 05:55 Clear 27 -2.9 26 -3.6 95 95 Calm 30.37 1028 10 16.0934 0 0
6:15 am 06:15 Clear 26 -3.1 25 -3.8 95 95 N 5 7 30.37 1028 10 16.0934 0 0
6:35 am 06:35 Clear 26 -3.1 25 -3.9 94 94 N 3 6 30.37 1028 10 16.0934 0 0
6:55 am 06:55 Clear 25 -4.1 23 -5 94 94 WNW 5 7 30.38 1029 10 16.0934 0 0
7:15 am 07:15 Clear 26 -3.5 24 -4.5 93 93 W 3 6 30.37 1029 10 16.0934 0 0
7:35 am 07:35 Clear 25 -3.7 24 -4.4 95 95 Calm 30.37 1028 10 16.0934 0 0
7:55 am 07:55 Sunny 25 -3.7 24 -4.5 94 94 Calm 30.36 1028 10 16.0934 0 0
8:15 am 08:15 Sunny 26 -3.4 24 -4.2 94 94 Calm 30.35 1028 10 16.0934 0 0
8:35 am 08:35 Sunny 28 -2.5 26 -3.6 92 92 Calm 30.34 1028 10 16.0934 0 0
8:55 am 08:55 Sunny 30 -1.1 27 -2.6 90 90 Calm 30.32 1027 10 16.0934 0 0
9:15 am 09:15 Sunny 32 0 29 -1.9 87 87 Calm 30.32 1027 10 16.0934 0 0
9:35 am 09:35 Sunny 34 1 30 -1.1 86 86 Calm 30.31 1026 10 16.0934 0 0
9:55 am 09:55 Sunny 37 2.6 31 -0.3 81 81 Calm 30.28 1025 10 16.0934 0 0
10:15 am 10:15 Sunny 40 4.3 33 0.5 77 77 S 5 7 30.26 1025 10 16.0934 0 0
10:35 am 10:35 Sunny 44 6.4 34 1.1 69 69 S 6 9 30.24 1024 10 16.0934 0 0
10:55 am 10:55 Sunny 46 7.5 33 0.3 61 61 SSW 9 15 30.22 1024 10 16.0934 0 0
11:15 am 11:15 Sunny 47 8.5 33 0.3 57 57 SSW 8 13 30.2 1023 10 16.0934 0 0
11:35 am 11:35 Sunny 49 9.6 33 0.5 53 53 S 8 13 30.18 1022 10 16.0934 0 0
11:55 am 11:55 Sunny 50 9.9 33 0.3 52 52 SSE 7 11 30.17 1022 10 16.0934 0 0
12:15 pm 12:15 Sunny 51 10.5 32 0.2 49 49 S 7 11 30.16 1021 10 16.0934 0 0
12:35 pm 12:35 Sunny 52 11.2 32 0 46 46 SSE 9 15 30.14 1021 10 16.0934 0 0
12:55 pm 12:55 Sunny 52 11.3 32 0 46 46 SSE 13 20 30.12 1020 10 16.0934 0 0
1:15 pm 13:15 Sunny 55 12.5 32 0 43 43 S 13 20 30.11 1020 10 16.0934 0 0
1:35 pm 13:35 Sunny 55 12.7 32 -0.1 42 42 S 13 20 30.1 1019 10 16.0934 0 0
1:55 pm 13:55 Sunny 56 13.6 32 0.1 40 40 S 13 20 30.07 1018 10 16.0934 0 0
2:15 pm 14:15 Sunny 58 14.2 33 0.4 39 39 SSE 14 22 30.06 1018 10 16.0934 0 0
2:35 pm 14:35 Sunny 58 14.7 32 0.2 37 37 S 9 15 30.04 1017 10 16.0934 0 0
2:55 pm 14:55 Sunny 59 15.2 32 0.2 36 36 S 12 19 30.02 1017 10 16.0934 0 0
3:15 pm 15:15 Sunny 60 15.8 32 0.2 35 35 SSW 10 17 30.01 1016 10 16.0934 0 0
3:35 pm 15:35 Sunny 62 16.9 32 0.2 32 32 S 15 24 29.99 1016 10 16.0934 0 0
3:55 pm 15:55 Sunny 63 17.4 33 0.3 32 32 SSW 13 20 29.98 1015 10 16.0934 0 0
4:15 pm 16:15 Sunny 64 17.6 33 0.3 31 31 S 14 22 29.96 1015 10 16.0934 0 0
4:35 pm 16:35 Sunny 64 17.8 33 0.4 31 31 S 9 15 29.96 1015 10 16.0934 0 0
4:55 pm 16:55 Sunny 63 17 33 0.3 32 32 SSW 12 19 29.97 1015 10 16.0934 0 0
5:15 pm 17:15 Sunny 64 17.5 33 0.4 32 32 SSW 10 17 29.95 1014 10 16.0934 0 0
5:35 pm 17:35 Sunny 64 17.6 33 0.4 31 31 SSW 12 19 29.94 1014 10 16.0934 0 0
5:55 pm 17:55 Sunny 62 16.4 33 0.4 34 34 S 8 13 29.95 1014 10 16.0934 0 0
6:15 pm 18:15 Sunny 61 16.1 34 1 36 36 S 7 11 29.95 1014 10 16.0934 0 0
6:35 pm 18:35 Sunny 59 15.2 34 1.1 39 39 SSE 8 13 29.94 1014 10 16.0934 0 0
6:55 pm 18:55 Sunny 57 14.1 33 0.8 41 41 SSE 8 13 29.94 1014 10 16.0934 0 0
7:15 pm 19:15 Clear 55 13 33 0.7 43 43 SSE 6 9 29.95 1014 10 16.0934 0 0
7:35 pm 19:35 Clear 53 11.6 33 0.6 47 47 SE 6 9 29.97 1015 10 16.0934 0 0
7:55 pm 19:55 Clear 54 12 33 0.7 46 46 SE 6 9 29.97 1015 10 16.0934 0 0
8:15 pm 20:15 Clear 54 12.2 34 0.9 46 46 SE 7 11 29.97 1015 10 16.0934 0 0
8:35 pm 20:35 Clear 52 11.3 34 1 49 49 SE 6 9 29.98 1015 10 16.0934 0 0
8:55 pm 20:55 Clear 51 10.4 34 1.1 53 53 ESE 5 7 29.99 1015 10 16.0934 0 0
9:15 pm 21:15 Clear 49 9.6 34 1 55 55 ESE 6 9 29.99 1016 10 16.0934 0 0
9:35 pm 21:35 Clear 48 9 34 1.1 58 58 ESE 6 9 29.99 1016 10 16.0934 0 0
9:55 pm 21:55 Clear 46 7.6 34 1 63 63 ESE 5 7 30 1016 10 16.0934 0 0
10:15 pm 22:15 Clear 43 6.3 33 0.7 68 68 E 5 7 30.02 1016 10 16.0934 0 0
10:35 pm 22:35 Clear 41 5.2 33 0.8 74 74 E 6 9 30.03 1017 10 16.0934 0 0
10:55 pm 22:55 Clear 42 5.3 33 0.7 73 73 E 6 9 30.03 1017 10 16.0934 0 0
11:15 pm 23:15 Clear 40 4.5 33 0.5 76 76 E 6 9 30.03 1017 10 16.0934 0 0
11:35 pm 23:35 Clear 40 4.6 33 0.5 75 75 E 5 7 30.03 1017 10 16.0934 0 0
11:55 pm 23:55 Clear 40 4.2 33 0.5 77 77 E 3 6 30.03 1017 10 16.0934 0 0

Powered by AerisWeather